Location: San Pelegr�n
(42.1868°N, 0.0079°E)
Time: 04:55:35
(UTC+00:00)

Cosmos 2297 Rocket - Pass Details

Date: 24 January 2020
Orbit: 838 x 845 km, 71.0° (Epoch: 16 February)

Event Time Altitude Azimuth Distance (km) Brightness Sun altitude
Rises 19:21:18 0° 247° (WSW) 3,387 6.5 -25.4°
Reaches altitude 10° 19:24:25 10° 265° (W) 2,458 5.6 -26.0°
Maximum altitude 19:28:27 20° 311° (NW) 1,872 4.5 -26.7°
Drops below altitude 10° 19:32:30 10° 357° (N) 2,471 4.6 -27.5°
Enters shadow 19:33:47 - 5° (N) 2,824 4.9 -27.7°
